Location: Gloden
(48.4833°N, 15.3167°E)
Time: 23:01:26
(UTC+00:00)

AQUARIUS - Pass Details

Date: 15 December 2019
Orbit: 650 x 653 km, 98.0° (Epoch: 18 January)

Event Time Altitude Azimuth Distance (km) Brightness Sun altitude
Rises 05:28:54 0° 14° (NNE) 2,986 7.5 -11.7°
Reaches altitude 10° 05:31:07 10° 15° (NNE) 2,069 6.7 -11.3°
Maximum altitude 05:35:39 85° 105° (ESE) 660 4.2 -10.6°
Drops below altitude 10° 05:40:08 10° 193° (SSW) 2,051 6.9 -10.0°
Sets 05:42:20 0° 194° (SSW) 2,957 7.7 -9.6°
